[TLELIST] Archives

 

[list_settings.list_name] Current TLEs

February 20th 2010 PST

HST 1 20580U 90037B 10050.08775190 .00000779 00000-0 46916-4 0 5187 2 20580 028.4704 290.8093 0003208 028.1865 331.9056 15.00901329886982 ISS (ZARYA) 1 25544U 98067A 10050.41759817 .00005670 00000-0 40640-4 0 6092 2 25544 051.6471 115.1892 0012770 353.1274 115.6190 15.75453314644921 CXO 1 25867U 99040B 10047.41666667 -.00000110 +00000-0 +10000-3 0 04299 2 25867 066.5432 059.3316 7971227 275.2523 358.1045 00.37808571005936 ____________________________________________________________________ These 2-Line ...Continue Reading

[list_settings.list_name] Current TLEs

February 19th 2010 PST

HST 1 20580U 90037B 10047.16192774 +.00000648 +00000-0 +36922-4 0 05173 2 20580 028.4704 309.9015 0003209 357.0922 002.9784 15.00896951886546 ISS (ZARYA) 1 25544U 98067A 10049.46008642 -.00050513 00000-0 -32189-3 0 6050 2 25544 051.6504 120.1161 0013359 347.5562 086.8830 15.75430691644770 CXO 1 25867U 99040B 10047.41666667 -.00000110 +00000-0 +10000-3 0 04299 2 25867 066.5432 059.3316 7971227 275.2523 358.1045 00.37808571005936 ____________________________________________________________________ These 2-Line ...Continue Reading

[list_settings.list_name] Current TLEs

February 18th 2010 PST

HST 1 20580U 90037B 10042.17471048 .00000446 00000-0 21339-4 0 5153 2 20580 028.4707 342.4565 0003224 297.8634 062.1676 15.00891604885793 ISS (ZARYA) 1 25544U 98067A 10043.43102182 .00019994 00000-0 12992-3 0 5667 2 25544 051.6445 151.1609 0011006 318.8744 085.0717 15.75896363643827 CXO 1 25867U 99040B 10044.79166667 -.00000230 00000-0 10000-3 0 4284 2 25867 066.5293 059.4371 7967875 275.2402 000.7950 00.37806280 5922 ____________________________________________________________________ These 2-Line ...Continue Reading

[list_settings.list_name] Current TLEs

February 17th 2010 PST

HST 1 20580U 90037B 10042.17471048 .00000446 00000-0 21339-4 0 5153 2 20580 028.4707 342.4565 0003224 297.8634 062.1676 15.00891604885793 ISS (ZARYA) 1 25544U 98067A 10043.43102182 .00019994 00000-0 12992-3 0 5667 2 25544 051.6445 151.1609 0011006 318.8744 085.0717 15.75896363643827 CXO 1 25867U 99040B 10044.79166667 -.00000230 00000-0 10000-3 0 4284 2 25867 066.5293 059.4371 7967875 275.2402 000.7950 00.37806280 5922 ____________________________________________________________________ These 2-Line ...Continue Reading

[list_settings.list_name] Current TLEs

February 16th 2010 PST

HST 1 20580U 90037B 10042.17471048 .00000446 00000-0 21339-4 0 5153 2 20580 028.4707 342.4565 0003224 297.8634 062.1676 15.00891604885793 ISS (ZARYA) 1 25544U 98067A 10043.43102182 .00019994 00000-0 12992-3 0 5667 2 25544 051.6445 151.1609 0011006 318.8744 085.0717 15.75896363643827 CXO 1 25867U 99040B 10044.79166667 -.00000230 00000-0 10000-3 0 4284 2 25867 066.5293 059.4371 7967875 275.2402 000.7950 00.37806280 5922 ____________________________________________________________________ These 2-Line ...Continue Reading

[list_settings.list_name] Current TLEs

February 15th 2010 PST

HST 1 20580U 90037B 10042.17471048 .00000446 00000-0 21339-4 0 5153 2 20580 028.4707 342.4565 0003224 297.8634 062.1676 15.00891604885793 ISS (ZARYA) 1 25544U 98067A 10043.43102182 .00019994 00000-0 12992-3 0 5667 2 25544 051.6445 151.1609 0011006 318.8744 085.0717 15.75896363643827 CXO 1 25867U 99040B 10044.79166667 -.00000230 00000-0 10000-3 0 4284 2 25867 066.5293 059.4371 7967875 275.2402 000.7950 00.37806280 5922 ____________________________________________________________________ These 2-Line ...Continue Reading

[list_settings.list_name] Current TLEs

February 14th 2010 PST

HST 1 20580U 90037B 10042.17471048 .00000446 00000-0 21339-4 0 5153 2 20580 028.4707 342.4565 0003224 297.8634 062.1676 15.00891604885793 ISS (ZARYA) 1 25544U 98067A 10043.43102182 .00019994 00000-0 12992-3 0 5667 2 25544 051.6445 151.1609 0011006 318.8744 085.0717 15.75896363643827 CXO 1 25867U 99040B 10044.79166667 -.00000230 00000-0 10000-3 0 4284 2 25867 066.5293 059.4371 7967875 275.2402 000.7950 00.37806280 5922 ____________________________________________________________________ These 2-Line ...Continue Reading

[list_settings.list_name] Current TLEs

February 13th 2010 PST

HST 1 20580U 90037B 10042.17471048 .00000446 00000-0 21339-4 0 5153 2 20580 028.4707 342.4565 0003224 297.8634 062.1676 15.00891604885793 ISS (ZARYA) 1 25544U 98067A 10043.43102182 .00019994 00000-0 12992-3 0 5656 2 25544 051.6445 151.1609 0011006 318.8744 085.0717 15.75896363643827 CXO 1 25867U 99040B 10042.20833333 -.00000396 00000-0 10000-3 0 4271 2 25867 066.5162 059.5287 7964676 275.2335 009.1373 00.37806090 5915 ____________________________________________________________________ These 2-Line ...Continue Reading

[list_settings.list_name] Current TLEs

February 12th 2010 PST

HST 1 20580U 90037B 10042.17471048 .00000446 00000-0 21339-4 0 5153 2 20580 028.4707 342.4565 0003224 297.8634 062.1676 15.00891604885793 ISS (ZARYA) 1 25544U 98067A 10042.36298088 .00009220 00000-0 62382-4 0 5614 2 25544 051.6436 156.6615 0011251 314.3292 146.3680 15.75842469643654 CXO 1 25867U 99040B 10042.20833333 -.00000396 00000-0 10000-3 0 4271 2 25867 066.5162 059.5287 7964676 275.2335 009.1373 00.37806090 5915 ____________________________________________________________________ These 2-Line ...Continue Reading

[list_settings.list_name] Current TLEs

February 11th 2010 PST

HST 1 20580U 90037B 10039.31536863 .00000423 00000-0 19571-4 0 5141 2 20580 028.4702 001.1182 0003300 268.1978 091.8283 15.00889866885362 ISS (ZARYA) 1 25544U 98067A 10041.47298821 .00020464 00000-0 13285-3 0 5575 2 25544 051.6465 161.2389 0010796 309.9226 138.4817 15.75902812643514 CXO 1 25867U 99040B 10042.20833333 -.00000396 00000-0 10000-3 0 4271 2 25867 066.5162 059.5287 7964676 275.2335 009.1373 00.37806090 5915 ____________________________________________________________________ These 2-Line ...Continue Reading
  • This mailing list is a public mailing list - anyone may join or leave, at any time.
  • This mailing list is announce-only.

International Space Station (ISS) / Hubble Space Telescope (HST) / Chandra X-Ray Observatory Orbital Data via EMAIL

Privacy Policy:

Private list